Погода в Павлодаре

Погода в Павлодаре : погода сейчас, прогноз погоды и архив. Всё, что Вы хотите узнать о погоде в Павлодаре!

Поиск расширенной информации на нашем сайте:

Полезная информация:

Другие новости

Новости СМИ2

Главная страница сайта

Новости сайта

03.07.2017

Напоминаем, что на нашем специализированном сайте Метеоцентр.Азия вы можете получить высокодетализированные автоматические прогнозы погоды по пунктам России, СНГ и мира в авиационном формате (включающие направление и скорость ветра, видимость, явления погоды, количество и форму облачности, нижнюю и верхнюю границу облачности).

Рекомендуем:

Погода в Павлодаре - сегодня

Время (UTC), дата Ветер
(°,м/с) 
Видим.   Явления Облачность Т
(°С)
Тd
(°С)
f(%) Тe
(°С)
Pmin
(гПа)
dP
(гПа)
Po
(мм)
O2
(г/м3)
Тmin Tmax R s Состояние
почвы
21 18.05.19 290 (З) 20000 м    10/10 600 м кучево-дожд. 
[Cb cap]
+14.8 +6.1 56 +15  1002.1  -1.4  741  282           
00 19.05.19 290 (З) 20000 м    3/3 600 м 
[Sc diur, vesp]
+12.3 +8.3 77 +14  1002.3  0.1  741  284           
03 19.05.19 310 (СЗ) 20000 м    4/4 1000 м кучево-дожд. 
[Cb cap]
+12.1 +6.7 70 +11  1005.8  3.4  744  286           
06 19.05.19 320 (СЗ) 20000 м    3/1 1000 м верхняя 
[Cu hum|Ci fib]
+14.4 +0.6 39 +14  1008.8  746  285  +10.7         
09 19.05.19 300 (СЗ) 20000 м    1/0 верхняя 
[Ci fib]
+17.7 +1.7 34 +18  1008.8  0.2  746  282           
12 19.05.19 240 (ЮЗ) 20000 м    1/0 верхняя 
[Ci fib]
+18.4 -3.8 22 +19  1007.9  -0.9  745  282           
15 19.05.19 090 (В) 20000 м    3/1 1000 м кучево-дожд., верхняя 
[Cb cap|Ci fib]
+11.9 +1.9 50 +13  1008.1  -0.1  745  287    +18.9       
18 19.05.19 160 (Ю) 20000 м    ясно 
+9.3 +2.5 62 +9  1007.6  -0.6  745  290    +18.9       
21 19.05.19 260 (З) 20000 м    9/8 600 м кучево-дожд., средняя 
[Cb cap|Ac trans]
+9.7 +3.5 65 +11  1008.6  746  290           
00 20.05.19 210 (ЮЗ) 20000 м    3/3 1000 м кучево-дожд. 
[Cb cap]
+8.6 +5 78 +10  1009.7  746  291           
03 20.05.19 270 (З) 20000 м    4/0 верхняя 
[Cc]
+14.1 +0.1 38 +15  1010.2  0.7  747  286           
06 20.05.19 280 (З) 20000 м    8/3 1000 м средняя, верхняя 
[Cu hum|Ac trans|Ci fib]
+16.7 +3.3 41 +17  1009.4  -0.5  747  283  +7.6         
09 20.05.19 350 (С) 20000 м    9/3 1000 м средняя, верхняя 
[Cu hum|Ac trans|Ci fib]
+17.5 +1.4 34 +18  1007.8  -1.7  745  282           
12 20.05.19 020 (С) 20000 м    8/0 средняя, верхняя 
[Ac trans|Cs]
+17.4 +0.9 33 +18  1005.5  -2.2  744  282           
15 20.05.19 350 (С) 20000 м    9/5 600 м кучево-дожд., средняя 
[Cb cap|Ac trans]
+12.3 -2.9 35 +11  1004.5  -1.3  743  287    +18.4       
18 20.05.19 010 (С) 20000 м  {гроза, ливн. осадки}  6/0 средняя 
[Ac trans]
+7.9 +4.5 79 +7  1004.4  -0.2  743  290    +18.4       
21 20.05.19 220 (ЮЗ) 20000 м    4/0 средняя 
[Ac trans]
+5.3 +3.4 88 +6  1004.1  -0.5  742  293           
00 21.05.19 260 (З) 20000 м    10/10 600 м 
[Sc|Ac trans]
+8.1 +5.7 85 +7  1005  743  290           
03 21.05.19 300 (СЗ) 20000 м    9/9 600 м кучево-дожд. 
[Cb cap]
+8.3 +3.9 74 +7  1007.1  2.2  745  291      0.6     
06 21.05.19 290 (З) 20000 м    8/8 600 м кучево-дожд. 
[Cb cap]
+12.5 -0.1 42 +12  1007.9  745  287  +5.1    0.6     
09 21.05.19 310 (СЗ) 20000 м    8/6 600 м кучево-дожд., средняя 
[Cb cap|Ac trans]
+13.7 -1.3 35 +13  1008.4  0.5  746  286           
12 21.05.19 320 (СЗ) 20000 м    6/6 600 м кучево-дожд. 
[Cb cap]
+15.2 -2.8 29 +15  1008.5  0.1  746  285           
15 21.05.19 300 (СЗ) 20000 м    4/0 средняя 
[Ac trans]
+10.8 -2.1 40 +12  1010.4  1.7  747  290    +15.6       
18 21.05.19 300 (СЗ) 20000 м    8/8 600 м 
[Sc]
+6.6 +0.5 65 +8  1011.1  0.5  747  294    +15.6       
21 21.05.19 тихо ()   20000 м    8/8 600 м 
[Sc]
+4.8 +1.2 77 +5  1011.3  0.1  747  296           
Время (UTC), дата Ветер
(°,м/с) 
Видим.   Явления Облачность Т
(°С)
Тd
(°С)
f(%) Тe
(°С)
Pmin
(гПа)
dP
(гПа)
Po
(мм)
O2
(г/м3)
Тmin Tmax R s Состояние
почвы

Для получения пояснительной информации подведите курсор к названию столбца.

ПОГОДА в Павлодаре - архив

Всё, что Вы хотите узнать о погоде в Павлодаре - удобно и подробно!

Выберите нужную дату (начиная с 1 января 2018* года) и нажмите кнопку "Найти".
Будут отображены архивные сводки погоды по пункту Павлодар, начиная с указанной даты.


Отображать данные в формате CSV (для использования в таблицах Excel)


Внимание! Наш архив погоды предназначен исключительно для личного некоммерческого использования в познавательных целях. Если Вам необходимы официальные справки о состоянии погоды (для производственных, юридических, коммерческих и т.п. целей), обращайтесь в органы Росгидромета.

*Примечание: данная дата относится к архиву по метеостанциям СССР (Россия, СНГ, Балтия).
Архив по метеостанциям Зарубежной Европы и Азии (кроме Китая) хранится 10 дней, по другим регионам земного шара (Китай, Африка, Америка, Австралия, Океания) - 1 день.

Павлодар - район местоположения метеостанции


Название, широта, долгота, высота метеостанции:
Павлодар 52.1°ш. 77.1°д. 125 м над ур. моря [Казахстан]

Дополнительная информация

В oтличие oт бoльшинства пoгoдных сайтoв мы публикуем пoдрoбную метеoинфoрмацию в детальнoм прoфессиoнальнoм фoрмате.

Характеристики температуры и влажнoсти вoздуха измеряются на высoте 2 м в тени вдали oт зданий и деревьев.
Скoрoсть ветра измеряется на высoте 10 м (на урoвне рoста челoвека скoрoсть ветра ниже в 1.5-2 раза). Если метеoстанция нахoдится в гoрoде или в лесу, тo скoрoсть ветра занижена на 2-4 м/с пo сравнению с oткрытым местoм. Скoрoсть ветра над акватoриями крупных рек и oзёр, а также на вершинах хoлмoв на 2-5 м/с выше, чем в oбычных услoвиях.
Атмoсфернoе давление в разных тoчках местнoсти мoжет значительнo oтличаться oт давления на метеoстанции, в зависимoсти oт услoвий рельефа (при пoдъёме на 10 м давление пoнижается примернo на 1 мм рт.ст.).